Location: ???????
(55.4362°N, 38.1183°E)
Time: 18:01:47
(UTC+00:00)

ADEOS II - Pass Details

Date: 17 June 2021
Orbit: 799 x 800 km, 98.6° (Epoch: 29 July)

Event Time Altitude Azimuth Distance (km) Brightness Sun altitude
Rises 22:55:02 0° 21° (NNE) 3,325 7.8 -9.0°
Reaches altitude 10° 22:57:39 10° 31° (NNE) 2,390 6.1 -8.9°
Maximum altitude 23:02:19 31° 94° (E) 1,372 3.5 -8.7°
Drops below altitude 10° 23:06:58 10° 156° (SSE) 2,374 4.1 -8.4°
Enters shadow 23:08:50 - 164° (SSE) 3,033 4.6 -8.3°
